SCP
0 0 0 0 0 0 0 0 0 0 0 0 0 0 0 0 0 0 0 0 -0 -0 -0 -0 -0 -0 -0 -0 -0 -0 -0 -0 -0 -0 -0 -0 -0 0 -0 -0 -0 -0 -0 -0 -0 -0 -0 0 0
0 0 0 0 0 0 0 0 0 0 0 0 0 0 0 0 0 0 0 0 -0 -0 -0 -0 -0 -0 -0 -0 -0 -0 -0 -0 -0 -0 -0 -0 -0 -0 -0 -0 -0 -0 0 0 0 0 0 0 0
0 0 0 0 0 0 0 0 0 0 0 0 0 0 0 0 0 0 0 -0 -0 -0 -0 -0 -0 -0 -0 -0 -0 -0 -0 -0 -0 -0 -0 -0 -0 -0 -0 -0 -0 0 0 0 -0 -0 0 0 0
0 0 0 0 0 0 0 0 0 0 0 0 0 0 0 0 0 0 0 0 -0 -0 -0 -0 -0 -0 -0 -0 -0 -0 -0 -0 -0 -0 -0 -0 -0 -0 -0 -0 0 0 0 -0 -0 -0 -0 0 0
0 0 0 0 0 0 0 0 0 0 0 0 0 0 0 0 0 0 0 0 0 0 0 0 -0 -0 -0 -0 -0 -0 -0 -0 -0 0 -0 -0 -0 -0 -0 -0 0 0 -0 -0 -0 -0 -0 0 -0
0 0 0 0 0 0 0 0 0 0 0 0 0 0 0 0 0 0 0 0 0 0 0 0 0 0 0 -0 -0 -0 -0 -0 -0 -0 0 -0 -0 0 0 0 0 0 -0 -0 -0 0 -0 -0 -0
0 0 0 0 0 0 0 0 0 0 0 0 0 0 0 0 0 0 0 0 0 0 0 0 0 0 0 0 0 0 -0 -0 -0 -0 0 0 0 0 0 0 -0 -0 -0 -0 -0 0 -0 -0 -0
0 0 0 0 0 0 0 0 0 0 0 0 0 0 0 0 0 0 0 0 0 0 0 0 0 0 0 0 0 0 0 0 0 0 0 0 0 0 0 0 -0 -0 -0 -0 0 -0 -0 0 0
0 0 0 0 0 0 0 0 0 0 0 0 0 0 0 0 0 0 0 0 0 0 0 0 0 0 0 0 0 0 0 0 0 0 0 0 0 0 0 -0 -0 -0 -0 0 0 0 0 0 0
0 0 0 0 0 0 0 0 0 0 0 0 0 0 0 0 0 0 0 0 0 0 0 0 0 0 0 0 0 0 0 0 0 0 0 0 0 0 0 -0 -0 -0 0 0 0 0 0 0 0
0 0 0 0 0 0 0 0 0 0 0 0 0 0 0 0 0 0 0 0 0 0 0 0 0 0 0 0 0 0 0 0 0 0 0 0 0 0 0 0 -0 -0 0 0 0 0 0 0 0
0 0 0 0 0 0 0 0 0 0 0 0 0 0 0 0 0 0 0 0 0 0 0 0 0 0 0 0 0 0 0 0 0 0 0 0 0 0 0 0 0 0 0 0 0 0 0 0 0
0 0 0 0 0 0 0 0 0 0 0 0 0 0 0 0 0 0 0 0 0 0 0 0 0 0 0 0 0 0 0 0 0 0 0 0 0 0 0 0 0 0 0 0 0 0 0 0 0
0 0 0 0 0 0 0 0 0 0 0 0 0 0 0 0 0 0 0 0 0 0 0 0 0 0 0 0 0 0 0 0 0 0 0 0 0 0 0 0 0 0 0 0 0 0 0 0 0
0 0 0 0 0 0 0 0 0 0 0 0 0 0 0 0 0 0 0 0 0 0 0 0 0 0 0 0 0 0 0 0 0 0 0 0 0 0 0 0 0 0 0 0 0 0 0 0 0
0 0 0 0 0 -0 0 0 0 0 0 0 0 0 0 0 0 0 0 0 0 0 0 0 0 0 0 0 0 0 0 0 0 0 0 0 0 0 0 0 0 0 0 0 0 0 0 0 0
-0 0 0 0 0 0 0 0 0 0 0 0 0 0 0 0 0 0 0 0 0 0 0 0 0 0 0 0 0 0 0 0 0 0 0 0 0 0 0 0 0 0 0 0 0 0 0 0 0
0 0 0 0 0 0 0 0 0 0 0 0 0 0 0 0 0 0 0 0 0 0 0 0 0 0 0 0 0 0 0 0 0 0 0 0 0 0 0 0 0 0 0 0 0 0 0 0 0
0 0 0 0 0 0 0 0 0 0 0 0 0 0 0 0 0 0 0 0 0 0 0 0 0 0 0 0 0 0 0 0 0 0 0 0 0 0 0 0 0 0 0 0 0 0 0 0 0
0 0 0 0 0 0 0 0 0 0 0 0 0 0 0 0 0 0 0 0 0 0 0 0 0 0 0 0 0 0 0 0 0 0 0 0 0 0 0 0 0 0 0 0 0 0 0 0 0
0 0 0 0 0 0 0 0 0 0 0 0 0 0 0 0 0 0 0 0 0 0 0 0 0 0 0 0 0 0 0 0 0 0 0 0 0 0 0 0 0 0 0 0 0 0 0 0 0
0 0 0 0 0 0 0 0 -0 0 0 0 0 0 0 0 0 0 0 0 0 0 0 0 0 0 0 0 0 0 0 0 0 0 0 0 0 0 0 0 0 0 0 0 0 0 0 0 0
0 0 0 -0 -0 0 0 0 -0 0 0 0 0 0 0 0 0 0 0 0 0 0 0 0 0 0 0 0 0 0 0 0 0 0 0 0 0 0 0 0 0 0 0 0 0 0 0 0 0
0 0 0 -0 -0 0 0 0 0 0 0 0 0 0 0 0 0 0 0 0 0 0 0 0 0 0 0 0 0 0 0 0 0 0 0 0 0 0 0 0 0 0 0 0 0 0 0 0 0
0 0 -0 -0 0 0 0 0 0 -0 0 0 0 0 0 0 0 0 0 0 0 0 0 0 0 0 0 0 0 0 0 0 0 0 0 0 0 0 0 0 0 0 0 0 0 0 0 0 0
0 0 -0 0 0 0 0 0 0 0 0 0 0 0 0 0 0 0 0 0 0 0 0 0 0 0 0 0 0 0 0 0 0 0 0 0 0 0 0 0 0 0 0 0 0 0 0 0 0
0 0 0 0 0 0 0 0 0 0 0 0 0 0 0 0 0 0 0 0 0 0 0 0 0 0 0 0 0 0 0 0 0 0 0 0 0 0 0 0 0 0 0 0 0 0 0 0 0
-0 0 0 -0 0 0 0 0 0 0 0 0 0 0 0 0 0 0 0 0 0 0 0 0 0 0 0 0 0 0 0 0 0 0 0 0 0 0 0 0 0 0 0 0 0 0 0 0 0
0 0 -0 -0 -0 0 0 0 0 0 0 0 0 0 0 0 0 0 0 0 0 0 0 0 0 0 0 0 0 0 0 0 0 0 0 0 0 0 0 0 0 0 0 0 0 0 0 0 0
0 0 -0 0 0 0 0 0 0 0 0 0 0 0 0 0 0 0 0 0 0 0 0 0 0 0 0 0 0 0 0 0 0 0 0 0 0 0 0 0 0 0 0 0 0 0 0 0 0
Wind_Speed_500mb
20 17 18 7 2 3 6 11 4 8 3 3 17 11 12 7 10 6 18 41 63 62 58 51 47 48 44 36 29 27 24 22 24 26 29 30 32 34 34 33 32 30 28 25 24 23 22 22 22
20 17 13 3 5 6 8 8 12 9 6 10 13 8 5 6 7 6 33 44 69 61 58 52 50 51 46 37 31 27 23 22 24 27 31 33 35 35 34 32 30 27 25 24 23 22 21 19 19
20 13 5 5 6 14 8 10 8 7 6 11 9 6 6 4 11 17 26 54 68 63 57 51 53 55 47 39 33 29 24 21 23 27 32 34 33 34 33 30 28 25 24 23 22 20 18 15 13
10 7 6 5 17 9 10 5 11 1 9 4 7 5 5 8 6 25 40 62 65 62 55 51 52 55 48 41 36 30 25 21 23 26 31 33 33 33 31 28 25 24 23 22 19 15 13 11 11
9 6 5 8 12 7 9 14 13 6 9 10 11 4 2 8 15 28 51 65 64 61 54 51 52 53 48 42 37 30 26 21 24 28 31 33 34 32 29 26 24 23 21 18 15 11 11 9 9
10 7 8 16 11 8 12 29 8 8 8 10 10 12 6 11 18 35 54 63 62 59 53 51 53 52 48 42 38 33 28 21 22 27 32 34 34 30 27 25 23 21 18 15 12 9 8 8 9
8 7 20 21 10 14 12 14 10 11 10 12 11 14 11 25 27 41 53 60 60 55 51 52 53 51 48 44 41 39 25 19 21 27 32 33 32 29 27 25 22 18 15 12 9 7 6 7 8
17 5 31 23 22 25 9 11 10 18 11 11 21 11 11 39 39 45 52 58 57 54 51 52 50 53 51 47 47 40 25 20 22 29 32 32 31 29 26 23 19 16 12 9 5 2 7 9 14
22 16 35 39 32 21 12 13 13 8 12 14 17 8 8 38 47 53 57 58 60 56 52 53 53 52 51 49 49 40 28 23 26 32 33 32 30 28 25 22 18 15 10 4 2 6 16 12 14
23 19 41 27 25 18 27 16 17 12 12 11 13 19 18 39 54 65 69 72 69 63 57 55 54 54 54 53 50 41 32 26 29 34 34 32 30 27 23 19 16 12 6 5 4 7 12 14 11
13 37 19 32 29 34 29 20 14 13 7 19 22 26 30 46 60 67 71 73 70 64 61 58 58 57 56 55 50 42 34 30 34 37 36 32 29 25 22 18 14 6 2 2 6 9 12 14 10
28 32 17 37 40 17 15 36 28 35 24 14 8 15 34 52 61 75 71 70 70 66 62 61 59 58 57 52 47 39 34 34 39 40 37 32 28 25 21 17 11 8 3 4 8 11 14 11 10
28 33 53 43 47 43 38 32 25 30 46 31 21 12 30 49 62 73 68 66 67 66 66 66 62 61 58 53 46 41 37 37 41 41 37 33 29 25 22 16 11 8 6 10 12 14 12 9 9
30 38 43 37 37 37 26 36 32 38 56 42 32 19 28 47 65 70 71 68 70 66 69 69 67 63 57 52 47 41 39 42 43 40 36 33 31 25 20 15 12 10 11 13 15 12 8 7 7
21 24 32 48 29 26 21 34 48 40 36 53 42 37 32 47 59 73 75 70 68 64 67 73 71 65 60 53 47 43 43 45 44 41 37 33 30 25 22 16 14 13 13 14 12 8 5 6 7
14 13 21 12 28 26 24 53 25 60 54 44 44 46 43 51 60 64 71 63 59 61 68 71 69 68 62 57 50 47 46 46 43 42 39 39 30 25 23 19 17 15 15 12 7 5 6 6 6
11 20 23 20 30 14 36 33 27 33 62 61 54 59 55 53 61 64 67 61 56 65 65 66 68 69 63 56 51 49 48 47 45 43 37 32 31 27 24 21 19 17 14 9 6 6 6 6 5
16 16 21 23 11 35 47 41 30 24 47 54 53 63 68 68 64 60 58 62 61 70 66 63 67 69 63 57 57 54 49 48 46 39 38 36 30 25 24 22 18 16 12 9 8 7 6 5 5
20 27 28 28 23 28 33 39 37 41 31 38 44 50 61 72 66 72 64 69 54 72 70 67 74 75 71 68 61 57 54 50 46 46 40 36 32 27 21 20 17 14 11 10 10 8 5 6 11
31 32 38 36 34 28 36 27 34 25 44 47 46 55 61 66 67 57 69 67 61 76 75 69 77 80 79 71 66 61 55 56 50 46 45 39 32 24 21 19 17 15 14 13 10 8 7 8 12
36 37 38 31 29 36 34 28 26 19 34 38 50 55 62 71 78 67 71 79 71 80 81 76 81 82 80 77 72 65 58 57 55 51 46 38 30 25 24 21 18 17 16 12 10 8 8 8 9
38 38 38 32 12 16 23 19 28 39 31 28 49 53 63 69 77 80 72 80 81 82 83 79 80 81 81 78 73 69 74 68 59 51 42 39 31 26 26 25 23 22 18 15 12 8 7 7 11
33 23 31 28 29 23 42 16 28 26 30 40 36 58 66 72 79 80 84 84 82 87 89 84 81 84 82 75 73 69 67 60 50 52 46 40 34 32 32 30 27 23 19 14 9 9 9 11 10
12 28 14 23 14 23 46 26 8 22 34 26 31 64 72 74 80 81 81 81 86 90 90 91 85 87 82 76 76 76 64 62 60 54 55 47 40 40 36 31 28 24 18 9 6 11 10 9 10
33 11 7 5 8 25 27 27 29 11 19 35 39 64 74 78 81 84 84 87 84 92 92 92 88 92 86 83 78 75 69 69 56 58 58 56 50 43 37 33 28 21 10 5 12 13 10 9 9
42 38 6 13 18 7 13 18 11 16 13 19 24 59 66 79 85 90 89 85 79 89 93 92 89 94 91 85 83 75 68 70 64 66 61 59 48 40 37 34 27 14 11 22 16 15 13 10 10
24 25 39 10 6 7 7 6 17 11 10 15 24 60 71 78 81 92 88 83 78 85 87 85 85 86 90 90 81 79 72 73 70 69 65 58 47 47 43 36 21 15 28 19 19 16 14 13 13
12 15 6 13 6 5 11 6 12 3 10 16 27 42 67 69 73 83 86 81 68 71 81 82 81 78 78 82 83 79 76 76 74 75 67 59 52 44 38 26 21 22 14 23 20 19 17 16 16
10 13 17 8 5 5 6 5 1 11 17 20 28 51 59 59 63 78 71 64 57 69 78 82 80 79 78 79 86 85 82 77 74 65 59 52 48 38 23 21 19 21 27 25 24 22 21 21 21
10 4 3 5 5 2 1 6 11 16 19 15 17 36 46 62 70 76 76 71 69 76 74 75 72 76 77 81 84 82 78 76 63 62 54 45 40 24 13 25 26 26 27 27 26 25 25 26 27
Wind_Direction_500mb
303 319 326 285 89 60 202 244 262 267 285 192 140 160 202 149 169 194 165 172 174 172 170 168 167 163 167 162 151 138 132 125 130 136 133 137 132 133 129 124 120 116 111 104 98 94 90 85 79
289 309 319 244 161 195 235 232 228 238 235 158 168 150 175 215 168 156 155 164 171 172 170 168 165 163 167 166 153 141 135 130 136 140 141 139 132 131 129 126 122 117 110 104 100 95 88 81 76
278 293 256 186 196 212 214 222 222 268 229 194 169 173 170 237 201 170 164 164 170 173 170 168 167 168 169 168 158 149 141 134 136 143 146 139 135 132 131 129 125 119 112 108 102 98 92 87 77
251 240 192 196 223 247 210 215 182 210 176 219 209 161 178 190 172 176 168 167 169 172 171 170 171 171 171 172 165 156 146 136 136 141 144 140 135 135 135 130 123 118 112 105 102 98 92 82 65
249 207 221 217 230 239 239 234 242 222 184 193 174 216 236 185 187 176 167 165 170 171 173 173 173 172 172 174 168 163 155 140 139 142 143 141 139 139 134 128 124 118 112 109 105 93 81 69 46
230 184 207 225 223 228 230 247 226 219 204 177 172 150 189 171 178 169 169 168 171 173 174 175 175 175 173 173 172 167 150 139 142 147 148 144 144 141 136 131 127 123 118 109 95 85 70 43 27
219 202 229 229 209 238 238 251 224 222 203 217 185 154 181 184 171 171 174 171 172 176 175 174 177 177 175 174 175 169 154 149 151 153 155 153 148 143 140 137 134 128 113 101 90 73 34 9 1
228 242 234 216 218 242 216 201 225 200 217 193 179 184 192 187 172 169 169 170 177 179 179 176 178 180 179 178 176 175 170 167 160 159 158 155 152 149 146 143 136 125 116 114 105 33 335 340 13
228 240 237 224 213 220 241 200 207 194 168 192 196 188 182 177 171 170 173 177 180 181 181 180 181 180 179 178 177 180 182 179 169 167 166 162 157 155 153 148 141 134 138 154 291 23 3 13 1
215 234 239 247 229 200 220 218 183 179 170 209 202 208 187 176 180 178 179 180 184 183 182 184 184 182 179 178 181 184 187 183 176 173 173 168 164 162 156 152 151 160 192 52 25 342 341 349 347
254 242 254 258 269 215 209 203 212 180 203 211 215 216 194 185 186 189 186 188 187 186 184 185 186 185 182 182 184 187 188 184 179 178 178 173 171 168 165 163 165 167 111 228 294 308 321 334 339
264 273 278 264 263 268 242 242 235 221 222 196 224 254 208 193 196 197 192 192 192 192 188 186 187 187 185 186 188 191 191 187 183 182 181 177 177 175 175 175 185 171 227 297 302 305 316 331 332
268 278 283 282 278 270 266 243 226 224 235 228 226 256 221 203 201 198 196 195 194 194 193 189 190 191 190 190 192 194 194 191 187 186 184 183 184 184 185 185 187 204 241 283 294 309 320 327 329
290 301 294 290 283 264 263 262 238 233 233 228 232 240 224 206 202 195 196 197 205 201 202 195 196 196 196 195 197 197 196 192 190 189 189 187 187 190 187 190 201 230 267 289 301 308 319 331 331
297 286 287 276 264 255 276 257 235 225 228 229 232 232 227 215 203 207 205 203 205 207 208 206 200 200 201 202 202 199 196 193 191 193 192 189 191 186 194 202 227 246 276 292 296 305 320 319 310
290 265 271 262 261 241 232 255 233 222 231 225 221 223 218 216 213 210 213 209 209 211 210 212 205 203 203 204 201 197 195 196 196 197 196 193 191 196 203 212 226 252 278 285 286 287 288 294 289
212 259 255 269 239 247 218 258 230 219 214 223 219 223 223 220 214 215 218 218 221 215 213 216 208 201 200 199 198 196 197 196 198 195 197 200 195 202 213 223 234 258 271 260 243 249 268 272 242
223 230 246 245 238 224 251 245 248 232 209 220 218 217 217 218 215 210 220 225 222 214 214 220 210 200 199 196 197 199 199 197 193 195 197 203 203 208 221 231 242 250 247 223 217 234 249 252 226
259 266 274 267 286 278 247 248 238 225 230 221 220 214 211 214 218 218 223 226 220 211 211 214 205 198 196 191 193 198 196 193 197 198 202 205 211 223 238 238 243 240 222 214 218 233 237 200 187
241 248 256 271 271 275 266 256 249 222 227 226 221 215 211 208 212 215 222 223 213 208 210 210 205 200 197 194 197 198 197 197 202 202 207 209 217 230 238 239 238 223 214 215 223 241 225 200 203
231 233 246 244 273 282 275 264 244 251 235 229 227 223 210 201 208 209 213 216 208 207 208 208 204 202 201 200 201 201 204 202 204 206 211 214 220 231 234 234 224 215 213 217 222 217 220 233 230
240 221 230 243 241 259 207 246 219 232 228 220 224 214 208 200 213 215 216 210 210 209 207 207 206 203 205 204 204 204 208 208 207 211 212 219 223 234 231 226 219 211 207 206 202 215 239 260 266
235 196 216 214 228 269 270 227 244 206 226 223 212 209 209 205 208 208 213 216 213 209 205 206 207 207 208 206 209 210 214 214 214 214 215 216 225 229 224 217 210 201 198 191 223 232 259 266 271
211 261 238 215 220 247 248 238 224 207 209 215 209 208 205 197 203 212 214 209 209 208 204 207 208 210 209 209 210 212 212 219 214 213 218 218 220 225 212 206 199 191 182 218 251 271 258 252 268
202 217 211 150 178 244 227 213 239 231 203 202 203 201 198 191 189 197 198 201 206 208 205 208 210 212 213 213 215 216 218 224 225 227 220 218 217 214 205 194 186 177 174 280 308 255 245 260 281
194 194 192 191 188 189 175 198 228 238 196 215 227 197 188 184 187 193 198 199 206 206 205 207 211 215 213 216 218 217 218 219 226 225 225 220 214 202 187 181 179 194 276 294 253 228 244 264 286
165 203 227 317 183 116 183 279 303 221 247 228 220 189 188 183 183 189 195 197 204 203 205 207 211 216 216 218 219 218 219 220 223 224 217 214 193 185 183 177 193 241 279 237 219 230 247 271 285
248 140 130 225 168 224 191 215 235 140 297 271 203 187 188 180 179 183 189 191 198 202 204 207 211 212 211 213 213 217 219 219 223 221 207 197 183 180 181 190 234 274 239 223 227 238 254 270 286
166 171 225 175 263 218 166 207 60 289 283 300 184 179 179 173 169 183 189 194 198 208 207 207 208 210 210 209 210 214 217 217 217 214 202 189 169 175 203 237 241 229 220 223 234 244 259 270 278
239 97 209 113 241 305 81 268 351 299 262 237 169 140 139 162 166 177 184 189 195 202 203 200 204 210 211 212 212 213 210 205 197 185 172 169 177 197 203 229 229 222 223 233 240 251 262 270 275
Wind_Speed_850mb
20 17 18 7 2 3 6 11 4 8 3 3 17 11 12 7 10 6 18 41 63 62 58 51 47 48 44 36 29 27 24 22 24 26 29 30 32 34 34 33 32 30 28 25 24 23 22 22 22
20 17 13 3 5 6 8 8 12 9 6 10 13 8 5 6 7 6 33 44 69 61 58 52 50 51 46 37 31 27 23 22 24 27 31 33 35 35 34 32 30 27 25 24 23 22 21 19 19
20 13 5 5 6 14 8 10 8 7 6 11 9 6 6 4 11 17 26 54 68 63 57 51 53 55 47 39 33 29 24 21 23 27 32 34 33 34 33 30 28 25 24 23 22 20 18 15 13
10 7 6 5 17 9 10 5 11 1 9 4 7 5 5 8 6 25 40 62 65 62 55 51 52 55 48 41 36 30 25 21 23 26 31 33 33 33 31 28 25 24 23 22 19 15 13 11 11
9 6 5 8 12 7 9 14 13 6 9 10 11 4 2 8 15 28 51 65 64 61 54 51 52 53 48 42 37 30 26 21 24 28 31 33 34 32 29 26 24 23 21 18 15 11 11 9 9
10 7 8 16 11 8 12 29 8 8 8 10 10 12 6 11 18 35 54 63 62 59 53 51 53 52 48 42 38 33 28 21 22 27 32 34 34 30 27 25 23 21 18 15 12 9 8 8 9
8 7 20 21 10 14 12 14 10 11 10 12 11 14 11 25 27 41 53 60 60 55 51 52 53 51 48 44 41 39 25 19 21 27 32 33 32 29 27 25 22 18 15 12 9 7 6 7 8
17 5 31 23 22 25 9 11 10 18 11 11 21 11 11 39 39 45 52 58 57 54 51 52 50 53 51 47 47 40 25 20 22 29 32 32 31 29 26 23 19 16 12 9 5 2 7 9 14
22 16 35 39 32 21 12 13 13 8 12 14 17 8 8 38 47 53 57 58 60 56 52 53 53 52 51 49 49 40 28 23 26 32 33 32 30 28 25 22 18 15 10 4 2 6 16 12 14
23 19 41 27 25 18 27 16 17 12 12 11 13 19 18 39 54 65 69 72 69 63 57 55 54 54 54 53 50 41 32 26 29 34 34 32 30 27 23 19 16 12 6 5 4 7 12 14 11
13 37 19 32 29 34 29 20 14 13 7 19 22 26 30 46 60 67 71 73 70 64 61 58 58 57 56 55 50 42 34 30 34 37 36 32 29 25 22 18 14 6 2 2 6 9 12 14 10
28 32 17 37 40 17 15 36 28 35 24 14 8 15 34 52 61 75 71 70 70 66 62 61 59 58 57 52 47 39 34 34 39 40 37 32 28 25 21 17 11 8 3 4 8 11 14 11 10
28 33 53 43 47 43 38 32 25 30 46 31 21 12 30 49 62 73 68 66 67 66 66 66 62 61 58 53 46 41 37 37 41 41 37 33 29 25 22 16 11 8 6 10 12 14 12 9 9
30 38 43 37 37 37 26 36 32 38 56 42 32 19 28 47 65 70 71 68 70 66 69 69 67 63 57 52 47 41 39 42 43 40 36 33 31 25 20 15 12 10 11 13 15 12 8 7 7
21 24 32 48 29 26 21 34 48 40 36 53 42 37 32 47 59 73 75 70 68 64 67 73 71 65 60 53 47 43 43 45 44 41 37 33 30 25 22 16 14 13 13 14 12 8 5 6 7
14 13 21 12 28 26 24 53 25 60 54 44 44 46 43 51 60 64 71 63 59 61 68 71 69 68 62 57 50 47 46 46 43 42 39 39 30 25 23 19 17 15 15 12 7 5 6 6 6
11 20 23 20 30 14 36 33 27 33 62 61 54 59 55 53 61 64 67 61 56 65 65 66 68 69 63 56 51 49 48 47 45 43 37 32 31 27 24 21 19 17 14 9 6 6 6 6 5
16 16 21 23 11 35 47 41 30 24 47 54 53 63 68 68 64 60 58 62 61 70 66 63 67 69 63 57 57 54 49 48 46 39 38 36 30 25 24 22 18 16 12 9 8 7 6 5 5
20 27 28 28 23 28 33 39 37 41 31 38 44 50 61 72 66 72 64 69 54 72 70 67 74 75 71 68 61 57 54 50 46 46 40 36 32 27 21 20 17 14 11 10 10 8 5 6 11
31 32 38 36 34 28 36 27 34 25 44 47 46 55 61 66 67 57 69 67 61 76 75 69 77 80 79 71 66 61 55 56 50 46 45 39 32 24 21 19 17 15 14 13 10 8 7 8 12
36 37 38 31 29 36 34 28 26 19 34 38 50 55 62 71 78 67 71 79 71 80 81 76 81 82 80 77 72 65 58 57 55 51 46 38 30 25 24 21 18 17 16 12 10 8 8 8 9
38 38 38 32 12 16 23 19 28 39 31 28 49 53 63 69 77 80 72 80 81 82 83 79 80 81 81 78 73 69 74 68 59 51 42 39 31 26 26 25 23 22 18 15 12 8 7 7 11
33 23 31 28 29 23 42 16 28 26 30 40 36 58 66 72 79 80 84 84 82 87 89 84 81 84 82 75 73 69 67 60 50 52 46 40 34 32 32 30 27 23 19 14 9 9 9 11 10
12 28 14 23 14 23 46 26 8 22 34 26 31 64 72 74 80 81 81 81 86 90 90 91 85 87 82 76 76 76 64 62 60 54 55 47 40 40 36 31 28 24 18 9 6 11 10 9 10
33 11 7 5 8 25 27 27 29 11 19 35 39 64 74 78 81 84 84 87 84 92 92 92 88 92 86 83 78 75 69 69 56 58 58 56 50 43 37 33 28 21 10 5 12 13 10 9 9
42 38 6 13 18 7 13 18 11 16 13 19 24 59 66 79 85 90 89 85 79 89 93 92 89 94 91 85 83 75 68 70 64 66 61 59 48 40 37 34 27 14 11 22 16 15 13 10 10
24 25 39 10 6 7 7 6 17 11 10 15 24 60 71 78 81 92 88 83 78 85 87 85 85 86 90 90 81 79 72 73 70 69 65 58 47 47 43 36 21 15 28 19 19 16 14 13 13
12 15 6 13 6 5 11 6 12 3 10 16 27 42 67 69 73 83 86 81 68 71 81 82 81 78 78 82 83 79 76 76 74 75 67 59 52 44 38 26 21 22 14 23 20 19 17 16 16
10 13 17 8 5 5 6 5 1 11 17 20 28 51 59 59 63 78 71 64 57 69 78 82 80 79 78 79 86 85 82 77 74 65 59 52 48 38 23 21 19 21 27 25 24 22 21 21 21
10 4 3 5 5 2 1 6 11 16 19 15 17 36 46 62 70 76 76 71 69 76 74 75 72 76 77 81 84 82 78 76 63 62 54 45 40 24 13 25 26 26 27 27 26 25 25 26 27
Wind_Direction_850mb
303 319 326 285 89 60 202 244 262 267 285 192 140 160 202 149 169 194 165 172 174 172 170 168 167 163 167 162 151 138 132 125 130 136 133 137 132 133 129 124 120 116 111 104 98 94 90 85 79
289 309 319 244 161 195 235 232 228 238 235 158 168 150 175 215 168 156 155 164 171 172 170 168 165 163 167 166 153 141 135 130 136 140 141 139 132 131 129 126 122 117 110 104 100 95 88 81 76
278 293 256 186 196 212 214 222 222 268 229 194 169 173 170 237 201 170 164 164 170 173 170 168 167 168 169 168 158 149 141 134 136 143 146 139 135 132 131 129 125 119 112 108 102 98 92 87 77
251 240 192 196 223 247 210 215 182 210 176 219 209 161 178 190 172 176 168 167 169 172 171 170 171 171 171 172 165 156 146 136 136 141 144 140 135 135 135 130 123 118 112 105 102 98 92 82 65
249 207 221 217 230 239 239 234 242 222 184 193 174 216 236 185 187 176 167 165 170 171 173 173 173 172 172 174 168 163 155 140 139 142 143 141 139 139 134 128 124 118 112 109 105 93 81 69 46
230 184 207 225 223 228 230 247 226 219 204 177 172 150 189 171 178 169 169 168 171 173 174 175 175 175 173 173 172 167 150 139 142 147 148 144 144 141 136 131 127 123 118 109 95 85 70 43 27
219 202 229 229 209 238 238 251 224 222 203 217 185 154 181 184 171 171 174 171 172 176 175 174 177 177 175 174 175 169 154 149 151 153 155 153 148 143 140 137 134 128 113 101 90 73 34 9 1
228 242 234 216 218 242 216 201 225 200 217 193 179 184 192 187 172 169 169 170 177 179 179 176 178 180 179 178 176 175 170 167 160 159 158 155 152 149 146 143 136 125 116 114 105 33 335 340 13
228 240 237 224 213 220 241 200 207 194 168 192 196 188 182 177 171 170 173 177 180 181 181 180 181 180 179 178 177 180 182 179 169 167 166 162 157 155 153 148 141 134 138 154 291 23 3 13 1
215 234 239 247 229 200 220 218 183 179 170 209 202 208 187 176 180 178 179 180 184 183 182 184 184 182 179 178 181 184 187 183 176 173 173 168 164 162 156 152 151 160 192 52 25 342 341 349 347
254 242 254 258 269 215 209 203 212 180 203 211 215 216 194 185 186 189 186 188 187 186 184 185 186 185 182 182 184 187 188 184 179 178 178 173 171 168 165 163 165 167 111 228 294 308 321 334 339
264 273 278 264 263 268 242 242 235 221 222 196 224 254 208 193 196 197 192 192 192 192 188 186 187 187 185 186 188 191 191 187 183 182 181 177 177 175 175 175 185 171 227 297 302 305 316 331 332
268 278 283 282 278 270 266 243 226 224 235 228 226 256 221 203 201 198 196 195 194 194 193 189 190 191 190 190 192 194 194 191 187 186 184 183 184 184 185 185 187 204 241 283 294 309 320 327 329
290 301 294 290 283 264 263 262 238 233 233 228 232 240 224 206 202 195 196 197 205 201 202 195 196 196 196 195 197 197 196 192 190 189 189 187 187 190 187 190 201 230 267 289 301 308 319 331 331
297 286 287 276 264 255 276 257 235 225 228 229 232 232 227 215 203 207 205 203 205 207 208 206 200 200 201 202 202 199 196 193 191 193 192 189 191 186 194 202 227 246 276 292 296 305 320 319 310
290 265 271 262 261 241 232 255 233 222 231 225 221 223 218 216 213 210 213 209 209 211 210 212 205 203 203 204 201 197 195 196 196 197 196 193 191 196 203 212 226 252 278 285 286 287 288 294 289
212 259 255 269 239 247 218 258 230 219 214 223 219 223 223 220 214 215 218 218 221 215 213 216 208 201 200 199 198 196 197 196 198 195 197 200 195 202 213 223 234 258 271 260 243 249 268 272 242
223 230 246 245 238 224 251 245 248 232 209 220 218 217 217 218 215 210 220 225 222 214 214 220 210 200 199 196 197 199 199 197 193 195 197 203 203 208 221 231 242 250 247 223 217 234 249 252 226
259 266 274 267 286 278 247 248 238 225 230 221 220 214 211 214 218 218 223 226 220 211 211 214 205 198 196 191 193 198 196 193 197 198 202 205 211 223 238 238 243 240 222 214 218 233 237 200 187
241 248 256 271 271 275 266 256 249 222 227 226 221 215 211 208 212 215 222 223 213 208 210 210 205 200 197 194 197 198 197 197 202 202 207 209 217 230 238 239 238 223 214 215 223 241 225 200 203
231 233 246 244 273 282 275 264 244 251 235 229 227 223 210 201 208 209 213 216 208 207 208 208 204 202 201 200 201 201 204 202 204 206 211 214 220 231 234 234 224 215 213 217 222 217 220 233 230
240 221 230 243 241 259 207 246 219 232 228 220 224 214 208 200 213 215 216 210 210 209 207 207 206 203 205 204 204 204 208 208 207 211 212 219 223 234 231 226 219 211 207 206 202 215 239 260 266
235 196 216 214 228 269 270 227 244 206 226 223 212 209 209 205 208 208 213 216 213 209 205 206 207 207 208 206 209 210 214 214 214 214 215 216 225 229 224 217 210 201 198 191 223 232 259 266 271
211 261 238 215 220 247 248 238 224 207 209 215 209 208 205 197 203 212 214 209 209 208 204 207 208 210 209 209 210 212 212 219 214 213 218 218 220 225 212 206 199 191 182 218 251 271 258 252 268
202 217 211 150 178 244 227 213 239 231 203 202 203 201 198 191 189 197 198 201 206 208 205 208 210 212 213 213 215 216 218 224 225 227 220 218 217 214 205 194 186 177 174 280 308 255 245 260 281
194 194 192 191 188 189 175 198 228 238 196 215 227 197 188 184 187 193 198 199 206 206 205 207 211 215 213 216 218 217 218 219 226 225 225 220 214 202 187 181 179 194 276 294 253 228 244 264 286
165 203 227 317 183 116 183 279 303 221 247 228 220 189 188 183 183 189 195 197 204 203 205 207 211 216 216 218 219 218 219 220 223 224 217 214 193 185 183 177 193 241 279 237 219 230 247 271 285
248 140 130 225 168 224 191 215 235 140 297 271 203 187 188 180 179 183 189 191 198 202 204 207 211 212 211 213 213 217 219 219 223 221 207 197 183 180 181 190 234 274 239 223 227 238 254 270 286
166 171 225 175 263 218 166 207 60 289 283 300 184 179 179 173 169 183 189 194 198 208 207 207 208 210 210 209 210 214 217 217 217 214 202 189 169 175 203 237 241 229 220 223 234 244 259 270 278
239 97 209 113 241 305 81 268 351 299 262 237 169 140 139 162 166 177 184 189 195 202 203 200 204 210 211 212 212 213 210 205 197 185 172 169 177 197 203 229 229 222 223 233 240 251 262 270 275